INTELSAT 33E DEB, 62004

Orbit data source: Space-Track

INTELSAT 33E DEB, 62004 is space debris in GEO originally from a launch on Wed, 24 Aug 2016 UTC launched from the French Guiana (FRGUI). Debris objects in space refer to the collection of defunct objects orbiting the Earth. Examples of debris include non-operational satellites, rocket bodies, and fragments generated from explosions, collisions, or faulty payload assembly.

Not visible in the next 10 days
Identifier
62004, 2016-053W
Orbit
GEO
Country
Flag of UnknownUnknown / ITSO
Related business
Manufacturer
Boeing/ES
Mission
Spacecraft
Bus & Motor
Unknown
Mass
Unknown
Launch date (UTC)
2016-08-24 (9 years ago)
Launch vehicle
Unknown
Launch site
French Guiana (FRGUI)
Object type
Payload
Rocket body
Debris
Shape & HBR
Unknown shape, 1.1 m
Radar Cross Section
RCS unknown

Expand to show TLE details & history
Last TLE update: 2 days ago

TLE from 2 days ago
0 INTELSAT 33E DEB
1 62004U 16053W   25301.25493849  .00000057  00000-0  00000-0 0  9994
2 62004   2.0341 127.1693 0200356 257.4671 100.7293  1.02631024  3836
Epoch: 2025-10-28T06:07Z
TLE epoch observation values (Epoch: 2025-10-28T06:07:06.685Z)
Latitude
Longitude
-1.0394°
Altitude
35,306.812 km
Speed
3.086 km/s
True Right ascension
08h 30m 20s
True Declination
0° 00' 00"
Sunlit
Object was in daylight at epoch
Visualization orbit readout
Latitude
Unknown
Longitude
Unknown
Altitude
Unknown
Speed
Unknown
Apparent Right ascension
Unknown
Apparent Declination
Unknown
Sunlit
N/A
Visualization observer readout
Local Sidereal Time
16:49:31
Azimuth
Unknown
Elevation
Unknown
Doppler factor
Unknown
Orbital elements
Apogee altitude
35,970.823 km
Perigee altitude
34,307.181 km
Semi-major axis
41,517.139 km
Eccentricity
0.02004
Inclination
2.0341°
RAAN
127.1693°
Arg. of periapsis
257.4671°
True anomaly
102.97403°
Mean anomaly
100.7293°
Eccentric anomaly
101.85278°
Mean motion
0.25657 °/min
Orbital period
1,403.14 mins
BSTAR
0
Loading maneuver chart data...
Computing Atmospheric mass density...
Loading historical data...
Loading historical data...
Loading historical data...
Loading historical data...
Loading historical data...
Loading historical data...
Loading historical data...

Documentation

Showing up to 5 results
|